www.pogodaiklimat.ru

Погода и климат >> Архив погоды >> Финляндия >> Суомуссалми


ПОГОДА в Суомуссалми

  • Прогноз погоды в Суомуссалми
  • Монитор погоды в Суомуссалми

АРХИВ ПОГОДЫ в Суомуссалми

Время (UTC), дата Ветер
(напр.,м/с)
 
Видим.   Явления Облачность Т
(С)
Тd
(С)
f
(%)
Тe
(С)
Тes
(С)
Комфортность P
(гПа)
Po
(гПа)
Тmin
(С)
Tmax
(С)
R
(мм)
R24
(мм)
S
(см)
21 10.06 З 3-6
{6}
50 км в посл. час дождь {ливн. осадки} 9/6 1500 м
[]
+10.5 +7.9 84 +8 +8 1012.3 985.5
00 11.06 З 5-9
{11}
50 км {ливн. осадки, дождь} 4/4 600 м
[]
+6.3 +3.4 82 +2 +2 1015.2 987.8
03 11.06 СЗ 4-7
{11}
50 км 1/0 300 м
[]
+4.1 +0.9 80 -0 +1 1018.5 990.9
06 11.06 СЗ 4-8
{10}
50 км 6/6 600 м
[]
+5.6 +1.0 72 +2 +4 1021.0 993.4 +3.9 +12.9
09 11.06 СЗ 4-8
{9}
40 км 6/6 1000 м
[]
+7.5 -0.8 56 +5 +8 1023.3 995.8
12 11.06 СЗ 4-8
{9}
50 км 9/9 1000 м
[]
+8.4 +0.4 57 +6 +6 1024.7 997.3
15 11.06 СЗ 3-5
{6}
50 км 9/0 1000 м
[]
+8.7 -0.4 53 +7 +9 1025.8 998.3
18 11.06 С 3-5
{7}
50 км 9/9 1500 м
[]
+7.1 +1.2 66 +4 +5 1026.8 999.2 +5.5 +9.5
21 11.06 С 2-4
{4}
50 км {ливн. осадки, морось} 9/0 1500 м
[]
+5.2 +0.9 74 +3 +3 1028.3 1000.5
00 12.06 СЗ 2-3
{4}
50 км {ливн. осадки, морось} 1/0 1500 м
[]
+3.5 +1.6 87 +1 +1 1029.7 1001.7
03 12.06 С 1-3
{3}
50 км ясно +4.8 +0.9 76 +4 +5 1030.0 1002.1
06 12.06 С 2-5
{6}
50 км 6/6 1000 м
[]
+6.8 -0.9 58 +5 +8 1030.5 1002.8 +2.8 +7.5
09 12.06 СЗ 2-5
{5}
35 км 9/0 1500 м
[]
+8.4 -2.1 48 +7 +14 1031.0 1003.4
12 12.06 СВ 3-6
{6}
35 км 4/0 1500 м
[]
+11.2 -1.5 41 +10 +17 1030.1 1002.8
15 12.06 В 1-3
{5}
40 км 4/0 1500 м
[]
+11.4 -1.5 41 +12 +16 1029.4 1002.1
18 12.06 В 1-2
{4}
50 км ясно +10.0 +1.0 54 +10 +11 1029.5 1002.2 +6.7 +12.8
21 12.06 штиль 0-1
{1}
50 км ясно +3.9 +2.8 93 +3 +3 1029.9 1001.9
00 13.06 штиль 0-1
{4}
4700 м дымка 4/0
[]
+1.1 +0.9 99 -0 -0 1030.2 1001.9
03 13.06 В 1-1
{2}
50 км 1/0
[]
+5.1 +5.0 99 +4 +5 1029.9 1002.0
06 13.06 Ю 3-4
{5}
45 км {дымка} 1/0
[]
+11.1 +0.2 47 +10 +15 1028.4 1001.1 +1.0 +11.2
09 13.06 В 2-6
{6}
40 км 6/4
[]
+15.3 +1.8 40 +15 +21 1026.9 1000.1
12 13.06 В 2-5
{6}
30 км 9/0
[]
+16.7 +2.0 37 +17 +23 1025.0 998.4
15 13.06 ЮВ 1-3
{7}
40 км 4/0
[]
+17.0 +1.8 36 +18 +23 1023.0 996.5
18 13.06 В 1-1
{2}
50 км 9/9
[]
+14.7 +5.8 55 +15 +15 1022.2 995.5 +11.1 +18.1
21 13.06 З 1-1
{2}
50 км 9/9
[]
+10.6 +5.9 73 +10 +10 1022.2 995.0
00 14.06 СЗ 1-1
{1}
50 км 1/0
[]
+6.4 +4.9 90 +5 +5 1022.2 994.7
03 14.06 СЗ 1-1
{2}
50 км ясно +10.7 +8.4 86 +10 +12 1020.4 993.3
06 14.06 ЮВ 1-3
{3}
7000 м дымка ясно +15.9 +4.2 46 +17 +25 1019.4 992.8 +5.6 +16.1
09 14.06 ЮВ 2-4
{4}
30 км ясно +18.9 +2.5 34 +20 +32 1017.9 991.7
12 14.06 СЗ 2-4
{4}
35 км ясно +19.9 +1.7 30 +21 +32 комфорт 1016.5 990.4
15 14.06 СЗ 2-4
{5}
35 км ясно +21.2 +3.3 31 +21 +26 комфорт 1014.2 988.2
18 14.06 СЗ 3-5
{5}
40 км ясно +19.8 +3.8 35 +21 +21 комфорт 1013.0 987.0 +15.8 +21.8
21 14.06 СЗ 1-2
{2}
50 км ясно +10.8 +7.2 78 +11 +11 1013.6 986.7
00 15.06 З 1-2
{2}
50 км 1/0
[]
+7.4 +6.5 94 +6 +6 1013.5 986.3
03 15.06 СЗ 2-2
{2}
50 км ясно +12.8 +8.4 75 +12 +13 1012.7 986.0
06 15.06 В 1-2
{4}
35 км ясно +18.0 +6.4 47 +19 +27 1012.9 986.7 +6.8 +19.9
09 15.06 СВ 2-6
{7}
н/о 1/0 2000 м
[]
+19.5 +7.0 44 +21 +32 комфорт 1013.1 987.1
12 15.06 СВ 3-6
{6}
н/о 1/0 1500 м
[]
+21.2 +7.5 41 +22 +31 комфорт 1012.9 987.0
15 15.06 В 2-4
{6}
40 км 1/0 2000 м
[]
+22.2 +8.2 41 +23 +28 комфорт 1012.1 986.3
18 15.06 СЗ 3-7
{7}
40 км ясно +20.4 +4.8 36 +21 +22 комфорт 1011.9 985.9 +18.0 +22.5
21 15.06 З 2-3
{3}
50 км ясно +11.7 +7.4 75 +11 +11 1012.7 986.0
00 16.06 З 3-6
{6}
50 км ясно +11.6 +6.0 68 +10 +10 1012.8 986.1
03 16.06 З 3-6
{6}
50 км ясно +12.7 +6.9 68 +11 +13 1012.0 985.4
06 16.06 З 3-5
{6}
35 км ясно +19.4 +6.5 43 +20 +26 1010.5 984.5 +10.7 +20.5
09 16.06 З 4-8
{9}
35 км ясно +22.5 +8.7 41 +24 +32 комфорт 1009.5 983.8
12 16.06 З 4-8
{8}
45 км 4/0 1500 м
[]
+22.4 +9.6 44 +24 +30 комфорт 1008.9 983.2
15 16.06 З 3-6
{10}
40 км 1/0 2000 м
[]
+23.5 +7.9 37 +24 +28 комфорт 1008.1 982.5
18 16.06 З 4-7
{8}
45 км 1/1 1500 м
[]
+21.2 +9.4 47 +23 +23 комфорт 1008.4 982.6 +19.4 +23.8
21 16.06 СЗ 2-3
{4}
50 км ясно +15.0 +9.6 70 +15 +15 1009.2 982.8
00 17.06 З 3-4
{4}
50 км ясно +11.8 +8.4 80 +10 +10 1009.9 983.2
03 17.06 СЗ 1-2
{4}
40 км ясно +13.1 +10.0 81 +13 +15 1009.6 983.0
06 17.06 ЮЗ 1-3
{3}
40 км 4/4
[]
+19.2 +10.3 56 +21 +26 комфорт 1008.4 982.4 +11.5 +21.2
09 17.06 ЮЗ 3-6
{7}
40 км 9/9 2000 м
[]
+18.1 +11.3 64 +18 +19 1008.3 982.2
12 17.06 ЮЗ 2-4
{6}
40 км ясно +22.5 +12.7 54 +25 +36 комфорт 1006.8 981.1
15 17.06 З 3-6
{7}
40 км 4/4 2000 м
[]
+22.6 +12.5 53 +25 +28 комфорт 1005.6 980.0
18 17.06 З 2 50 км 9/6
[]
+18.0 +11.2 64 +19 +19 1006.3 980.3 +17.5 +24.1

 

Местоположение метеостанции Суомуссалми (Финляндия): широта 64.93 долгота 28.75 высота над уровнем моря 223 м.

В архиве по умолчанию представлена погода в Суомуссалми за последнюю неделю. Архивные данные за месяц целиком и за предыдущие месяцы, начиная с января 2011 года, Вы можете получить, выбрав интересующий диапазон дат из раскрывающегося списка и нажав кнопку "Ввод!".


*Определитесь, кто Вы:
робот инопланетянин человек

Внимание! Время в таблицах - всемирное. Для получения местного времени необходимо прибавить поправку, которая равна 1 ч.

Смотрите также архив погоды в соседних городах и на ближайших метеорологических станциях:

Погода в Пуоланка Пальякка (Финляндия) (44 км)
Погода в Тайвалкоски (Финляндия) (75 км)
Погода в Каяни (Финляндия) (89 км)
Погода в Соткамо Куоланиеми (Финляндия) (93 км)
Погода в Кухмо Каллиёки (Финляндия) (97 км)
Погода в Пудасъярви (Финляндия) (99 км)
Погода в Каяни (Финляндия) (100 км)
Погода в Калевале (Карелия, Россия) (117 км)
Погода в Ваала Пэлсо (Финляндия) (121 км)
Погода в Аэропорту Куусамо (Финляндия) (121 км)

Пояснения к столбцам:

Ветер - указаны скорость ветра в м/с - средняя за 10 мин, порывы в срок и между сроками (в фигурных скобках) и направление, откуда дует ветер: С - северный, СВ - северо-восточный, В - восточный, ЮВ - юго-восточный, Ю - южный, ЮЗ - юго-западный, З - западный, СЗ - северо-западный.
Видимость - горизонтальная дальность видимости в метрах или километрах. При видимости от 1 до 10 км при отсутствии осадков обычно наблюдается дымка, при ухудшении видимости до 1 км и менее - туман. В сухую погоду видимость может ухудшаться дымом, пылью или мглою.
Явления - указаны атмосферные явления, наблюдавшиеся в срок или в последний час перед сроком; фигурными скобками обозначены явления, наблюдавшиеся между сроками (за 1-3 часа до срока); квадратными скобками обозначены град или гололедные отложения с указанием их диаметра в мм.
Облачность - указаны через наклонную черту общая и нижняя облачность в баллах и высота нижней границы облаков в метрах; квадратными скобками обозначены формы облаков: Ci - перистые, Cs - перисто-слоистые, Cc - перисто-кучевые, Ac - высококучевые, As - высокослоистые, Sc - слоисто-кучевые, Ns - слоисто-дождевые, Cu - кучевые, Cb - кучево-дождевые. Подробнее классификацию облаков см. в Атласе облаков (PDF).
T - Температура воздуха - температура, измеренная на высоте 2 м над землей.
Td - Температура точки росы - температура, при понижении до которой содержащийся в воздухе водяной пар достигнет насыщения.
f - Относительная влажность воздуха - влажноcть воздуха, измеренная на высоте 2 м над землей.
Te - Эффективная температура - температура, которую ощущает одетый по сезону человек в тени. Характеристика душности погоды. При расчете учитывается влияние влажности воздуха и скорости ветра на теплоощущения человека.
Tes - Эффективная температура на солнце - температура, которую ощущает человек, с поправкой на солнечный нагрев. Характеристика знойности погоды. Зависит от высоты солнца над горизонтом, облачности и скорости ветра. Ночью, в пасмурную погоду, а также при ветре 12 м/с и более поправка равна нулю.
P - Атмосферное давление - приведенное к уровню моря атмосферное давление.
Po - Атмосферное давление - измеренное на уровне метеостанции атмосферное давление.
Tmin - Минимальная температура - минимум температуры воздуха на высоте 2 м над землей.
Tmax - Максимальная температура - максимум температуры воздуха на высоте 2 м над землей.
R - Количество осадков - Количество выпавших осадков за период времени, мм. При наведении курсора мыши на число - период времени, за который выпало указанное количество осадков.
R24 - Количество осадков - Количество выпавших осадков за 24 часа, мм.
S - Снежный покров - Высота снежного покрова, см. При наведении курсора мыши на число - состояние снежного покрова и степень покрытия местности в баллах.